Back to catalog

KUIPER-00569

AliveCommunicationsLEO
NORAD 69766·PAYLOAD·🇺🇸 United States

Launched Jul 2, 2026 from Cape Canaveral Space Force Station

Loading…

Next Passes (next 24 hours)

TLE

FreshSource: CelesTrak SupGP

Epoch: Sep 14, 2026, 21:28 UTC

1 69766C 26151D   26257.89451389  .00003700  00000+0  48440-3 0  2577
2 69766  51.9005 256.4676 0000786  42.6544 195.6484 14.79923666    19

Track KUIPER-00569 in real time with AllMySat

Download on the App Store